Tracking 29606 objects as of 19-Sep-2024
HD Live streaming from Space Station
objects crossing your sky now

GLOBAL-15

Track GLOBAL-15 now!
10-day predictions


NORAD ID: 49470
Int'l Code: 2021-106B
Perigee: 204.3 km
Apogee: 226.3 km
Inclination: 42.0 °
Period: 88.7 minutes
Semi major axis: 6586 km
RCS: Unknown
Launch date: November 18, 2021
Source: United States (US)
Launch site: Rocket Lab Launch Complex (RLLC)
Your satellite tracking list
Your tracking list is empty




NASA's NSSDC Master Catalog

Two Line Element Set (TLE):
1 49470U 21106B   24262.54833775  .03352559  83243-5  11344-2 0  9994
2 49470  41.9760  32.9191 0016691 349.1163  10.9343 16.24199693160195
Source of the keplerian elements: AFSPC